F4ECA-13 Weather Reports


Display with metric or nautical units.
time (UTC)temp
F
wind
direction
speed
MPH
gust
MPH
rain 1hr
in
rain 24hr
in
rain mn
in
humidity
%
barometer
mb
20260505091525 65 164 2.0 3.0 0.00 0.58 7.66 69 1007.0
20260505090550 64 180 3.0 3.0 0.00 0.58 7.66 70 1005.9
20260505085525 63 180 2.0 2.0 0.00 0.58 7.66 71 1005.9
20260505084524 62 180 2.0 3.0 0.00 0.58 7.66 74 1005.9
20260505083529 62 180 3.0 4.0 0.00 0.58 7.66 75 1005.9
20260505082524 61 225 2.0 3.0 0.00 0.58 7.66 76 1005.9
20260505081604 59 225 2.0 3.0 0.00 9.71 5.10 79 1005.9
20260505080525 58 225 2.0 3.0 0.00 0.58 5.10 79 1007.0
20260505075544 58 203 3.0 4.0 0.00 0.58 5.10 79 1007.0
20260505074524 58 203 4.0 4.0 0.00 0.58 5.10 79 1007.0
20260505073524 58 203 2.0 4.0 0.00 0.58 5.10 78 1005.9
20260505072545 58 203 5.0 6.0 0.00 0.58 5.10 78 1007.0
20260505071519 58 191 4.0 5.0 0.00 0.58 5.10 76 1007.0
20260505070517 0 211 3.0 3.0 0.00 0.58 5.10 1007.0
20260505065545 60 203 5.0 6.0 0.00 0.58 5.10 74 1005.9
20260505064528 61 211 4.0 5.0 0.00 1.36 5.10 72 1005.9
20260505063524 61 180 2.0 3.0 0.00 0.58 5.10 74 1005.9
20260505062517 60 180 2.0 4.0 0.00 0.58 5.10 74 1005.9
20260505061529 61 180 3.0 4.0 0.00 0.58 5.10 75 1005.9
20260505060524 59 90 2.0 3.0 0.00 0.58 5.10 77 1005.9
20260505055517 56 90 4.0 5.0 0.00 0.58 5.10 76 1005.9
20260505054528 56 90 4.0 5.0 0.00 0.58 5.10 76 1005.9
20260505053528 56 90 4.0 5.0 0.00 0.58 5.10 76 1005.9
20260505052525 56 90 2.0 3.0 0.00 0.58 5.10 77 1005.9
20260505051518 56 90 2.0 3.0 0.00 0.58 5.10 77 1005.9
20260505050542 56 90 4.0 4.0 0.00 0.58 5.10 77 1005.9
20260505041529 56 0.0 0.0 0.00 0.58 5.10 77 1005.9
20260505040527 56 0.0 0.0 0.00 0.62 5.10 77 1005.9
20260505035525 56 0.0 0.0 0.00 0.62 5.10 76 1005.9
20260505034608 56 0.0 0.0 0.00 0.62 5.10 76 1005.9
20260505033524 56 0.0 0.0 0.00 0.62 5.10 76 1005.9
20260505032525 56 0.0 0.0 0.00 0.62 5.10 76 1007.0
20260505031524 56 0.0 0.0 0.00 0.62 5.10 75 1007.0
20260505030524 57 0.0 0.0 0.04 0.62 5.10 75 1007.0
20260505025519 57 90 3.0 3.0 0.04 0.62 5.10 75 1007.0
20260505024524 57 0.0 0.0 0.04 0.62 5.10 75 1007.0
20260505023524 57 0.0 0.0 2.53 1.76 5.06 75 1007.0
20260505022524 57 0.0 0.0 0.00 0.58 5.06 75 1007.0
20260505021527 57 0.0 0.0 0.00 0.58 5.06 75 1007.0
20260505020604 57 0.0 0.0 0.00 0.67 5.06 75 1007.0
20260505015525 0 90 3.0 3.0 0.00 0.67 5.06 1007.0
20260505014524 57 0.0 0.0 1.71 6.47 2.53 74 1007.0
20260505013525 57 0.0 0.0 0.00 0.67 2.53 74 1007.0
20260505012524 57 90 3.0 3.0 0.00 0.67 2.53 74 1007.0
20260505011551 57 0.0 0.0 0.00 0.67 2.53 74 1007.0
20260505010524 57 90 4.0 4.0 0.13 0.67 2.53 74 1007.0
20260505005524 57 90 2.0 2.0 0.13 0.67 2.53 74 1007.0
20260505004546 57 0.0 0.0 0.08 0.62 2.48 74 1007.0
20260505003544 57 90 2.0 3.0 0.04 0.58 2.45 74 1007.0
20260505002545 57 90 4.0 4.0 0.04 0.58 2.45 74 1008.0
20260505001524 57 90 2.0 2.0 0.04 0.58 2.45 74 1008.0
20260505000525 58 0.0 0.0 0.08 0.54 2.40 74 1008.0
20260504235527 58 0.0 0.0 0.04 0.50 2.36 74 1008.0
20260504234528 58 0.0 0.0 0.04 0.50 2.36 74 1008.0
20260504233524 58 0.0 0.0 0.00 0.46 2.32 74 1008.0
20260504232526 58 0.0 0.0 0.08 1.68 2.32 75 1008.0
20260504231524 58 0.0 0.0 0.00 0.46 2.32 75 1008.0
20260504230524 58 0.0 0.0 0.04 0.42 2.28 75 1008.0
20260504225547 58 0.0 0.0 0.04 0.42 2.28 75 1008.0
20260504224524 58 0.0 0.0 0.04 0.42 2.28 76 1008.0
20260504223525 58 0.0 0.0 0.04 0.42 2.28 76 1008.0
20260504222524 58 0.0 0.0 0.00 0.37 2.24 76 1008.0
20260504221547 58 0.0 0.0 0.04 0.37 2.24 76 1008.0
20260504220524 58 90 2.0 2.0 0.00 0.34 2.20 77 1008.0
20260504215518 58 90 3.0 4.0 8.70 5.63 1.45 77 1008.0
20260504214524 58 90 3.0 3.0 0.00 0.34 1.45 77 1008.0
20260504213525 58 90 3.0 4.0 0.00 0.34 1.45 77 1009.1
20260504212521 58 90 2.0 2.0 0.00 0.34 1.45 77 1008.0
20260504211529 58 90 2.0 3.0 0.00 0.34 1.23 78 1008.0
20260504210525 58 90 1.0 2.0 0.00 0.34 1.23 78 1009.1
20260504205520 58 0.0 0.0 0.00 0.34 1.23 79 1009.1
20260504204553 58 0.0 0.0 0.00 0.34 1.23 79 1009.1
20260504203523 0 90 1.0 2.0 0.00 0.34 1.23 1008.0
20260504202520 58 90 3.0 3.0 0.00 0.34 1.23 79 1008.0
20260504201550 58 90 1.0 2.0 0.00 0.34 1.23 80 1008.0
20260504200524 58 90 0.0 1.0 0.00 0.34 1.23 80 1008.0
20260504195519 58 90 1.0 2.0 0.00 0.34 1.23 80 1008.0
20260504194516 0 90 2.0 4.0 0.00 0.34 1.23 1008.0
20260504193528 58 90 2.0 3.0 0.00 0.34 1.23 81 1008.0
20260504192515 58 90 2.0 3.0 0.00 0.34 1.23 82 1008.0
20260504191548 58 90 3.0 4.0 0.00 0.34 1.23 82 1008.0
20260504190607 57 90 4.0 5.0 0.00 0.34 1.23 82 1008.0
20260504185525 57 90 3.0 4.0 0.00 0.34 1.23 83 1009.1
20260504184544 57 90 4.0 6.0 2.20 1.41 1.23 83 1009.1
20260504183524 57 90 4.0 6.0 0.00 0.34 1.23 83 1008.0
20260504182521 57 90 3.0 3.0 0.00 0.34 1.23 84 1009.1
20260504181524 56 90 2.0 2.0 0.00 0.34 1.23 84 1009.1
20260504180524 56 90 3.0 4.0 0.00 0.34 1.23 82 1009.1
20260504175548 56 90 4.0 4.0 0.00 0.34 1.23 83 1009.1
20260504174525 56 90 3.0 4.0 0.00 0.34 1.01 84 1009.1
20260504173528 56 90 4.0 5.0 0.00 0.34 1.01 84 1009.1
20260504172526 56 90 4.0 4.0 0.00 0.34 1.01 86 1009.1
20260504171547 56 90 3.0 4.0 0.00 0.34 1.01 86 1009.1
20260504170525 56 135 4.0 4.0 0.00 1.19 1.01 85 1009.1
20260504150524 62 161 5.0 10.0 0.00 0.29 1.00 69 1010.1
20260504140544 60 158 3.0 3.0 0.04 0.29 1.00 70 1010.1